Location: Regensburg
(48.4565°N, 10.3217°E)
Time: 11:10:14
(UTC+02:00)

ISS - Visible Passes

Search period start: 13 May 2021 00:00
Search period end: 23 May 2021 00:00
Orbit: 417 x 422 km, 51.6° (Epoch: 13 May)

Date Brightness Start Highest point End Pass type
(mag) Time Alt. Az. Time Alt. Az. Time Alt. Az.
13 May -0.9 00:32:07 11° ENE 00:32:07 11° ENE 00:32:15 10° ENE visible
13 May -2.8 02:05:02 37° NW 02:05:51 47° N 02:09:09 10° ENE visible
13 May -3.4 03:39:35 10° WNW 03:42:58 68° NNE 03:46:20 10° E visible
14 May -2.9 01:18:38 49° NNE 01:18:38 49° NNE 01:21:40 10° ENE visible
14 May -3.1 02:52:08 10° WNW 02:55:29 56° NNE 02:58:48 10° E visible
14 May -3.5 04:29:01 10° WNW 04:32:16 46° SSW 04:35:32 10° SE visible
14 May -3.4 22:50:53 10° SW 22:54:04 41° SSE 22:55:35 25° E visible
15 May -3.2 00:27:30 10° W 00:30:50 59° NNW 00:34:11 10° ENE visible
15 May -2.8 02:04:39 10° WNW 02:07:57 49° N 02:11:16 10° E visible
15 May -3.9 03:41:32 10° WNW 03:44:54 67° SSW 03:48:15 10° ESE visible
15 May -2.9 22:03:49 10° SSW 22:06:45 28° SE 22:09:41 10° E visible
15 May -3.6 23:40:00 10° WSW 23:43:21 73° NNW 23:46:44 10° ENE visible
16 May -2.7 01:17:10 10° WNW 01:20:26 46° N 01:23:43 10° ENE visible
16 May -3.8 02:54:05 10° WNW 02:57:28 88° NNE 03:00:51 10° ESE visible
16 May -2.5 04:31:21 10° W 04:33:57 21° SW 04:36:35 10° S visible
16 May -3.9 22:52:32 10° WSW 22:55:54 85° SSE 22:59:17 10° ENE visible
17 May -2.7 00:29:37 10° W 00:32:54 47° N 00:36:12 10° ENE visible
17 May -3.5 02:06:38 10° WNW 02:10:00 69° NNE 02:13:23 10° ESE visible
17 May -3.0 03:43:38 10° W 03:46:40 31° SW 03:49:41 10° SSE visible
17 May -3.8 22:05:10 10° SW 22:08:28 61° SSE 22:11:49 10° ENE visible
17 May -2.9 23:42:04 10° W 23:45:23 51° N 23:48:42 10° ENE visible
18 May -3.1 01:19:10 10° WNW 01:22:31 56° NNE 01:22:56 51° NE visible
18 May -3.2 22:54:32 10° W 22:57:52 59° NNW 23:01:13 10° ENE visible
19 May -2.9 00:31:42 10° WNW 00:35:00 49° N 00:36:32 27° ENE visible
19 May -1.5 02:08:34 10° WNW 02:09:26 17° WNW 02:09:26 17° WNW visible
19 May -3.5 22:07:01 10° WSW 22:10:23 73° NNW 22:13:45 10° ENE visible
19 May -2.7 23:44:11 10° WNW 23:47:28 46° N 23:50:21 13° ENE visible
20 May -2.6 01:21:07 10° WNW 01:23:16 37° WNW 01:23:16 37° WNW visible
20 May -2.7 22:56:39 10° W 22:59:56 47° N 23:03:13 10° ENE visible
21 May -3.6 00:33:39 10° WNW 00:37:01 69° NNE 00:37:12 67° NE visible
21 May -2.8 22:09:06 10° W 22:12:23 50° N 22:15:42 10° ENE visible
21 May -3.2 23:46:12 10° WNW 23:49:31 56° NNE 23:51:10 26° E visible
22 May -1.6 01:23:04 10° WNW 01:24:06 18° W 01:24:06 18° W visible
22 May -2.9 22:58:42 10° WNW 23:02:00 49° N 23:05:10 11° E visible
